| time (UTC) | temp C | wind direction | speed KPH | gust KPH | rain 1hr cm | rain 24hr cm | rain mn cm | humidity % | barometer mb |
| 20260506124224 | 13 | 338 | 9.7 | 16.1 | 0.00 | 0.00 | 0.00 | 56 | 1015.1 |
| 20260506123224 | 13 | 0 | 8.0 | 9.7 | 0.00 | 0.00 | 0.00 | 54 | 1014.1 |
| 20260506122726 | 13 | 292 | 8.0 | 9.7 | 0.00 | 0.00 | 0.00 | 54 | 1014.1 |
| 20260506122224 | 13 | 0 | 3.2 | 9.7 | 0.00 | 0.00 | 0.00 | 54 | 1015.1 |
| 20260506121724 | 13 | 338 | 6.4 | 9.7 | 0.00 | 0.00 | 0.00 | 54 | 1015.1 |
| 20260506121226 | 13 | 315 | 4.8 | 11.3 | 0.00 | 0.00 | 0.00 | 54 | 1015.1 |
| 20260506120724 | 13 | 315 | 4.8 | 11.3 | 0.00 | 0.00 | 0.00 | 54 | 1014.1 |
| 20260506115725 | 13 | 338 | 4.8 | 9.7 | 0.00 | 0.00 | 0.00 | 55 | 1014.1 |
| 20260506114725 | 13 | 292 | 4.8 | 9.7 | 0.00 | 0.00 | 0.00 | 55 | 1014.1 |
| 20260506114226 | 13 | 0 | 6.4 | 9.7 | 0.00 | 0.00 | 0.00 | 55 | 1014.1 |
| 20260506113725 | 13 | 270 | 4.8 | 9.7 | 0.00 | 0.00 | 0.00 | 54 | 1014.1 |
| 20260506113224 | 13 | 315 | 6.4 | 11.3 | 0.00 | 0.00 | 0.00 | 55 | 1014.1 |
| 20260506112725 | 13 | 338 | 8.0 | 11.3 | 0.00 | 0.00 | 0.00 | 55 | 1014.1 |
| 20260506112225 | 13 | 315 | 8.0 | 11.3 | 0.00 | 0.00 | 0.00 | 54 | 1014.1 |
| 20260506111224 | 13 | 202 | 8.0 | 9.7 | 0.00 | 0.00 | 0.00 | 54 | 1014.1 |
| 20260506110724 | 13 | 202 | 3.2 | 14.5 | 0.00 | 0.00 | 0.00 | 54 | 1014.1 |
| 20260506110224 | 13 | 292 | 6.4 | 14.5 | 0.00 | 0.00 | 0.00 | 54 | 1014.1 |
| 20260506105724 | 13 | 338 | 6.4 | 14.5 | 0.00 | 0.00 | 0.00 | 54 | 1014.1 |
| 20260506105224 | 13 | 338 | 8.0 | 14.5 | 0.00 | 0.00 | 0.00 | 55 | 1015.1 |
| 20260506104725 | 13 | 338 | 8.0 | 14.5 | 0.00 | 0.00 | 0.00 | 55 | 1015.1 |
| 20260506104225 | 14 | 292 | 9.7 | 16.1 | 0.00 | 0.00 | 0.00 | 55 | 1015.1 |
| 20260506103726 | 13 | 338 | 6.4 | 16.1 | 0.00 | 0.00 | 0.00 | 56 | 1014.1 |
| 20260506103225 | 13 | 338 | 14.5 | 16.1 | 0.00 | 0.00 | 0.00 | 56 | 1014.1 |
| 20260506102724 | 13 | 0 | 9.7 | 12.9 | 0.00 | 0.00 | 0.00 | 57 | 1014.1 |
| 20260506101725 | 13 | 0 | 11.3 | 12.9 | 0.00 | 0.00 | 0.00 | 58 | 1014.1 |
| 20260506101226 | 13 | 270 | 6.4 | 16.1 | 0.00 | 0.00 | 0.00 | 57 | 1014.1 |
| 20260506100724 | 12 | 0 | 9.7 | 16.1 | 0.00 | 0.00 | 0.00 | 58 | 1014.1 |
| 20260506100241 | 12 | 315 | 9.7 | 16.1 | 0.00 | 0.00 | 0.00 | 57 | 1014.1 |
| 20260506095724 | 13 | 338 | 11.3 | 17.7 | 0.00 | 0.00 | 0.00 | 60 | 1014.1 |
| 20260506094725 | 12 | 338 | 9.7 | 16.1 | 0.00 | 0.00 | 0.00 | 59 | 1015.1 |
| 20260506094225 | 12 | 338 | 8.0 | 17.7 | 0.00 | 0.00 | 0.00 | 60 | 1015.1 |
| 20260506093724 | 13 | 338 | 9.7 | 20.9 | 0.00 | 0.00 | 0.00 | 60 | 1015.1 |
| 20260506093224 | 13 | 0 | 9.7 | 20.9 | 0.00 | 0.00 | 0.00 | 62 | 1015.1 |
| 20260506092724 | 12 | 0 | 9.7 | 20.9 | 0.00 | 0.00 | 0.00 | 64 | 1015.1 |
| 20260506091725 | 12 | 338 | 9.7 | 17.7 | 0.00 | 0.00 | 0.00 | 64 | 1015.1 |
| 20260506091224 | 12 | 338 | 11.3 | 16.1 | 0.00 | 0.00 | 0.00 | 64 | 1015.1 |
| 20260506090724 | 12 | 338 | 8.0 | 17.7 | 0.00 | 0.00 | 0.00 | 65 | 1014.1 |
| 20260506085224 | 12 | 338 | 11.3 | 17.7 | 0.00 | 0.00 | 0.00 | 66 | 1014.1 |
| 20260506084724 | 11 | 338 | 12.9 | 17.7 | 0.00 | 0.00 | 0.00 | 67 | 1014.1 |
| 20260506084225 | 12 | 338 | 8.0 | 17.7 | 0.00 | 0.00 | 0.00 | 68 | 1014.1 |
| 20260506083724 | 11 | 315 | 8.0 | 17.7 | 0.00 | 0.00 | 0.00 | 68 | 1015.1 |
| 20260506083225 | 11 | 0 | 12.9 | 16.1 | 0.00 | 0.00 | 0.00 | 69 | 1015.1 |
| 20260506082724 | 11 | 338 | 11.3 | 16.1 | 0.00 | 0.00 | 0.00 | 69 | 1015.1 |
| 20260506081725 | 11 | 338 | 11.3 | 24.1 | 0.00 | 0.00 | 0.00 | 69 | 1014.1 |
| 20260506081225 | 11 | 338 | 8.0 | 24.1 | 0.00 | 0.00 | 0.00 | 69 | 1014.1 |
| 20260506080724 | 11 | 338 | 12.9 | 24.1 | 0.00 | 0.00 | 0.00 | 69 | 1014.1 |
| 20260506080225 | 11 | 338 | 6.4 | 20.9 | 0.00 | 0.00 | 0.00 | 70 | 1014.1 |
| 20260506073225 | 10 | 0 | 8.0 | 14.5 | 0.00 | 0.00 | 0.00 | 73 | 1014.1 |
| 20260506072225 | 10 | 338 | 4.8 | 14.5 | 0.00 | 0.00 | 0.00 | 73 | 1014.1 |
| 20260506071725 | 10 | 338 | 6.4 | 16.1 | 0.00 | 0.00 | 0.00 | 74 | 1014.1 |
| 20260506071224 | 10 | 315 | 4.8 | 16.1 | 0.00 | 0.00 | 0.00 | 74 | 1014.1 |
| 20260506070725 | 10 | 0 | 8.0 | 16.1 | 0.00 | 0.00 | 0.00 | 74 | 1014.1 |
| 20260506070226 | 10 | 0 | 11.3 | 12.9 | 0.00 | 0.00 | 0.00 | 74 | 1014.1 |
| 20260506062224 | 8 | 338 | 12.9 | 14.5 | 0.00 | 0.00 | 0.00 | 76 | 1014.1 |
| 20260506061725 | 8 | 338 | 11.3 | 14.5 | 0.00 | 0.00 | 0.00 | 76 | 1014.1 |
| 20260506061226 | 8 | 0 | 9.7 | 12.9 | 0.00 | 0.00 | 0.00 | 77 | 1014.1 |
| 20260506060748 | 8 | 338 | 9.7 | 11.3 | 0.00 | 0.00 | 0.00 | 77 | 1014.1 |
| 20260506060224 | 8 | 292 | 6.4 | 12.9 | 0.00 | 0.00 | 0.00 | 77 | 1014.1 |
| 20260506051226 | 8 | 315 | 4.8 | 9.7 | 0.00 | 0.00 | 0.00 | 76 | 1014.1 |
| 20260506050745 | 8 | 338 | 9.7 | 12.9 | 0.00 | 0.00 | 0.00 | 76 | 1014.1 |
| 20260506050225 | 8 | 0 | 8.0 | 14.5 | 0.00 | 0.00 | 0.00 | 76 | 1014.1 |
| 20260506044724 | 8 | 338 | 4.8 | 14.5 | 0.00 | 0.00 | 0.00 | 76 | 1013.1 |
| 20260506044225 | 8 | 0 | 6.4 | 14.5 | 0.00 | 0.00 | 0.00 | 76 | 1013.1 |
| 20260506043726 | 8 | 0 | 8.0 | 14.5 | 0.00 | 0.00 | 0.00 | 76 | 1013.1 |
| 20260506043224 | 8 | 315 | 9.7 | 12.9 | 0.00 | 0.00 | 0.00 | 76 | 1013.1 |
| 20260506042726 | 8 | 338 | 6.4 | 12.9 | 0.00 | 0.00 | 0.00 | 76 | 1013.1 |
| 20260506042224 | 8 | 338 | 4.8 | 6.4 | 0.00 | 0.00 | 0.00 | 76 | 1013.1 |
| 20260506041224 | 9 | 315 | 4.8 | 8.0 | 0.00 | 0.00 | 0.00 | 76 | 1013.1 |
| 20260506040726 | 9 | 338 | 4.8 | 9.7 | 0.00 | 0.00 | 0.00 | 76 | 1013.1 |
| 20260506040225 | 9 | 292 | 3.2 | 9.7 | 0.00 | 0.00 | 0.00 | 76 | 1013.1 |
| 20260506035724 | 9 | 315 | 3.2 | 9.7 | 0.00 | 0.00 | 0.00 | 76 | 1013.1 |
| 20260506034725 | 9 | 0 | 6.4 | 17.7 | 0.00 | 0.00 | 0.00 | 76 | 1014.1 |
| 20260506034225 | 9 | 0 | 8.0 | 17.7 | 0.00 | 0.00 | 0.00 | 76 | 1014.1 |
| 20260506033725 | 10 | 338 | 6.4 | 17.7 | 0.00 | 0.00 | 0.00 | 76 | 1014.1 |
| 20260506032724 | 10 | 0 | 8.0 | 14.5 | 0.00 | 0.00 | 0.00 | 76 | 1014.1 |
| 20260506032226 | 10 | 0 | 6.4 | 14.5 | 0.00 | 0.00 | 0.00 | 76 | 1014.1 |
| 20260506031725 | 10 | 0 | 9.7 | 14.5 | 0.00 | 0.00 | 0.00 | 76 | 1014.1 |
| 20260506031224 | 10 | 338 | 8.0 | 14.5 | 0.00 | 0.00 | 0.00 | 75 | 1014.1 |
| 20260506030724 | 10 | 0 | 9.7 | 12.9 | 0.00 | 0.00 | 0.00 | 75 | 1014.1 |
| 20260506030226 | 10 | 338 | 6.4 | 12.9 | 0.00 | 0.00 | 0.00 | 75 | 1014.1 |
| 20260506025724 | 10 | 0 | 11.3 | 12.9 | 0.00 | 0.00 | 0.00 | 75 | 1014.1 |
| 20260506025224 | 10 | 338 | 6.4 | 12.9 | 0.00 | 0.00 | 0.00 | 74 | 1014.1 |
| 20260506024725 | 10 | 0 | 9.7 | 12.9 | 0.00 | 0.00 | 0.00 | 74 | 1014.1 |
| 20260506023724 | 10 | 338 | 9.7 | 14.5 | 0.00 | 0.00 | 0.00 | 74 | 1014.1 |
| 20260506023224 | 10 | 338 | 9.7 | 14.5 | 0.00 | 0.00 | 0.00 | 74 | 1014.1 |
| 20260506022725 | 10 | 0 | 6.4 | 14.5 | 0.00 | 0.00 | 0.00 | 74 | 1014.1 |
| 20260506022225 | 10 | 0 | 9.7 | 14.5 | 0.00 | 0.00 | 0.00 | 74 | 1014.1 |
| 20260506021725 | 10 | 0 | 11.3 | 14.5 | 0.00 | 0.00 | 0.00 | 74 | 1014.1 |
| 20260506021224 | 10 | 338 | 8.0 | 16.1 | 0.00 | 0.00 | 0.00 | 74 | 1014.1 |
| 20260506020724 | 10 | 0 | 8.0 | 16.1 | 0.00 | 0.00 | 0.00 | 73 | 1014.1 |
| 20260506020224 | 10 | 338 | 8.0 | 17.7 | 0.00 | 0.00 | 0.00 | 73 | 1014.1 |
| 20260506015726 | 10 | 0 | 9.7 | 17.7 | 0.00 | 0.00 | 0.00 | 73 | 1014.1 |
| 20260506015226 | 10 | 338 | 6.4 | 17.7 | 0.00 | 0.00 | 0.00 | 73 | 1014.1 |
| 20260506014724 | 10 | 0 | 6.4 | 11.3 | 0.00 | 0.00 | 0.00 | 73 | 1014.1 |
| 20260506014226 | 10 | 292 | 8.0 | 11.3 | 0.00 | 0.00 | 0.00 | 73 | 1014.1 |
| 20260506013725 | 10 | 0 | 8.0 | 11.3 | 0.00 | 0.00 | 0.00 | 72 | 1014.1 |
| 20260506013224 | 10 | 0 | 8.0 | 14.5 | 0.00 | 0.00 | 0.00 | 72 | 1014.1 |
| 20260506012725 | 10 | 0 | 8.0 | 16.1 | 0.00 | 0.00 | 0.00 | 72 | 1014.1 |
| 20260506011724 | 10 | 0 | 9.7 | 14.5 | 0.00 | 0.00 | 0.00 | 72 | 1014.1 |
| 20260506011224 | 11 | 338 | 9.7 | 14.5 | 0.00 | 0.00 | 0.00 | 71 | 1014.1 |
| 20260506010726 | 11 | 0 | 8.0 | 14.5 | 0.00 | 0.00 | 0.00 | 71 | 1014.1 |
| 20260506010224 | 11 | 338 | 3.2 | 9.7 | 0.00 | 0.00 | 0.00 | 70 | 1014.1 |
| 20260506005726 | 11 | 0 | 6.4 | 9.7 | 0.00 | 0.00 | 0.00 | 70 | 1014.1 |
| 20260506005224 | 11 | 338 | 6.4 | 12.9 | 0.00 | 0.00 | 0.00 | 70 | 1015.1 |
| 20260506004724 | 11 | 0 | 8.0 | 16.1 | 0.00 | 0.00 | 0.00 | 70 | 1015.1 |
| 20260506004224 | 11 | 0 | 8.0 | 16.1 | 0.00 | 0.00 | 0.00 | 70 | 1015.1 |
| 20260506003724 | 11 | 338 | 9.7 | 20.9 | 0.00 | 0.00 | 0.00 | 70 | 1014.1 |
| 20260506003224 | 11 | 0 | 8.0 | 20.9 | 0.00 | 0.00 | 0.00 | 69 | 1014.1 |
| 20260506002726 | 11 | 338 | 8.0 | 20.9 | 0.00 | 0.00 | 0.00 | 70 | 1014.1 |
| 20260506002224 | 11 | 0 | 9.7 | 14.5 | 0.00 | 0.00 | 0.00 | 70 | 1015.1 |
| 20260506001224 | 11 | 0 | 8.0 | 16.1 | 0.00 | 0.00 | 0.00 | 70 | 1015.1 |
| 20260506000724 | 11 | 338 | 4.8 | 16.1 | 0.00 | 0.00 | 0.00 | 70 | 1015.1 |
| 20260506000232 | 11 | 338 | 6.4 | 14.5 | 0.00 | 0.00 | 0.00 | 70 | 1015.1 |
| 20260505235724 | 11 | 0 | 12.9 | 14.5 | 0.00 | 0.00 | 0.00 | 70 | 1015.1 |
| 20260505234724 | 11 | 0 | 6.4 | 12.9 | 0.00 | 0.00 | 0.00 | 70 | 1015.1 |
| 20260505234225 | 11 | 338 | 6.4 | 20.9 | 0.00 | 0.00 | 0.00 | 70 | 1015.1 |
| 20260505233724 | 11 | 338 | 6.4 | 20.9 | 0.00 | 0.00 | 0.00 | 70 | 1014.1 |
| 20260505233229 | 11 | 0 | 6.4 | 20.9 | 0.00 | 0.00 | 0.00 | 70 | 1014.1 |
| 20260505232734 | 11 | 0 | 4.8 | 12.9 | 0.00 | 0.00 | 0.00 | 70 | 1014.1 |
| 20260505232259 | 11 | 0 | 6.4 | 12.9 | 0.00 | 0.00 | 0.00 | 69 | 1015.1 |
| 20260505230725 | 11 | 338 | 6.4 | 14.5 | 0.00 | 0.00 | 0.00 | 69 | 1015.1 |
| 20260505225224 | 12 | 338 | 6.4 | 9.7 | 0.00 | 0.00 | 0.00 | 68 | 1015.1 |
| 20260505224724 | 12 | 0 | 6.4 | 9.7 | 0.00 | 0.00 | 0.00 | 68 | 1015.1 |
| 20260505223724 | 12 | 0 | 6.4 | 6.4 | 0.00 | 0.00 | 0.00 | 67 | 1015.1 |
| 20260505223224 | 12 | 0 | 4.8 | 6.4 | 0.00 | 0.00 | 0.00 | 67 | 1015.1 |
| 20260505222724 | 12 | 0 | 3.2 | 6.4 | 0.00 | 0.00 | 0.00 | 67 | 1015.1 |
| 20260505222224 | 12 | 0 | 6.4 | 6.4 | 0.00 | 0.00 | 0.00 | 67 | 1015.1 |
| 20260505221725 | 12 | 135 | 1.6 | 6.4 | 0.00 | 0.00 | 0.00 | 67 | 1015.1 |
| 20260505221225 | 12 | 0 | 1.6 | 6.4 | 0.00 | 0.00 | 0.00 | 67 | 1015.1 |
| 20260505220725 | 12 | 0 | 0.0 | 6.4 | 0.00 | 0.00 | 0.00 | 67 | 1014.1 |
| 20260505220225 | 12 | 0 | 1.6 | 6.4 | 0.00 | 0.00 | 0.00 | 66 | 1014.1 |
| 20260505215726 | 12 | 0 | 3.2 | 9.7 | 0.00 | 0.00 | 0.00 | 66 | 1014.1 |
| 20260505215225 | 12 | 0 | 3.2 | 9.7 | 0.00 | 0.00 | 0.00 | 66 | 1015.1 |
| 20260505214225 | 12 | 0 | 6.4 | 9.7 | 0.00 | 0.00 | 0.00 | 66 | 1015.1 |
| 20260505213724 | 12 | 338 | 3.2 | 9.7 | 0.00 | 0.00 | 0.00 | 66 | 1015.1 |
| 20260505213225 | 12 | 0 | 4.8 | 9.7 | 0.00 | 0.00 | 0.00 | 65 | 1015.1 |
| 20260505212724 | 12 | 0 | 6.4 | 9.7 | 0.00 | 0.00 | 0.00 | 65 | 1015.1 |
| 20260505212226 | 12 | 338 | 4.8 | 9.7 | 0.00 | 0.00 | 0.00 | 65 | 1015.1 |
| 20260505211226 | 12 | 0 | 4.8 | 9.7 | 0.00 | 0.00 | 0.00 | 65 | 1015.1 |
| 20260505210725 | 12 | 292 | 4.8 | 9.7 | 0.00 | 0.00 | 0.00 | 65 | 1015.1 |
| 20260505210225 | 12 | 0 | 4.8 | 9.7 | 0.00 | 0.00 | 0.00 | 64 | 1015.1 |
| 20260505205726 | 12 | 0 | 3.2 | 9.7 | 0.00 | 0.00 | 0.00 | 64 | 1015.1 |
| 20260505205225 | 12 | 338 | 6.4 | 9.7 | 0.00 | 0.00 | 0.00 | 64 | 1015.1 |
| 20260505204725 | 12 | 338 | 4.8 | 9.7 | 0.00 | 0.00 | 0.00 | 64 | 1015.1 |
| 20260505204224 | 12 | 0 | 3.2 | 6.4 | 0.00 | 0.00 | 0.00 | 64 | 1015.1 |
| 20260505203724 | 12 | 0 | 4.8 | 8.0 | 0.00 | 0.00 | 0.00 | 63 | 1015.1 |
| 20260505202225 | 12 | 338 | 6.4 | 9.7 | 0.00 | 0.00 | 0.00 | 63 | 1014.1 |
| 20260505201725 | 12 | 0 | 3.2 | 9.7 | 0.00 | 0.00 | 0.00 | 63 | 1014.1 |
| 20260505201224 | 12 | 338 | 6.4 | 9.7 | 0.00 | 0.00 | 0.00 | 61 | 1014.1 |
| 20260505200225 | 12 | 0 | 3.2 | 12.9 | 0.00 | 0.00 | 0.00 | 62 | 1014.1 |
| 20260505195224 | 12 | 0 | 8.0 | 9.7 | 0.00 | 0.00 | 0.00 | 60 | 1014.1 |
| 20260505194725 | 12 | 292 | 1.6 | 8.0 | 0.00 | 0.00 | 0.00 | 60 | 1014.1 |
| 20260505194224 | 12 | 315 | 3.2 | 8.0 | 0.00 | 0.00 | 0.00 | 59 | 1014.1 |
| 20260505193725 | 12 | 0 | 1.6 | 9.7 | 0.00 | 0.00 | 0.00 | 58 | 1014.1 |
| 20260505193225 | 13 | 0 | 6.4 | 9.7 | 0.00 | 0.00 | 0.00 | 57 | 1014.1 |
| 20260505191725 | 13 | 248 | 3.2 | 8.0 | 0.00 | 0.00 | 0.00 | 56 | 1014.1 |
| 20260505191224 | 13 | 338 | 4.8 | 8.0 | 0.00 | 0.00 | 0.00 | 56 | 1014.1 |
| 20260505190724 | 13 | 135 | 6.4 | 6.4 | 0.00 | 0.00 | 0.00 | 56 | 1014.1 |
| 20260505190225 | 13 | 248 | 0.0 | 6.4 | 0.00 | 0.00 | 0.00 | 55 | 1014.1 |
| 20260505185724 | 13 | 292 | 1.6 | 6.4 | 0.00 | 0.00 | 0.00 | 55 | 1014.1 |
| 20260505185224 | 13 | 158 | 3.2 | 8.0 | 0.00 | 0.00 | 0.00 | 55 | 1014.1 |
| 20260505184725 | 13 | 315 | 3.2 | 9.7 | 0.00 | 0.00 | 0.00 | 54 | 1014.1 |
| 20260505184225 | 13 | 135 | 4.8 | 9.7 | 0.00 | 0.00 | 0.00 | 54 | 1014.1 |
| 20260505183725 | 14 | 292 | 3.2 | 9.7 | 0.00 | 0.00 | 0.00 | 53 | 1014.1 |
| 20260505183225 | 14 | 0 | 6.4 | 9.7 | 0.00 | 0.00 | 0.00 | 53 | 1014.1 |
| 20260505182725 | 14 | 0 | 6.4 | 8.0 | 0.00 | 0.00 | 0.00 | 53 | 1014.1 |
| 20260505181724 | 14 | 338 | 3.2 | 9.7 | 0.00 | 0.00 | 0.00 | 53 | 1014.1 |
| 20260505180724 | 15 | 315 | 4.8 | 9.7 | 0.00 | 0.00 | 0.00 | 52 | 1014.1 |
| 20260505175724 | 15 | 0 | 3.2 | 9.7 | 0.00 | 0.00 | 0.00 | 52 | 1014.1 |
| 20260505174726 | 15 | 338 | 4.8 | 8.0 | 0.00 | 0.00 | 0.00 | 51 | 1014.1 |
| 20260505174224 | 15 | 0 | 4.8 | 9.7 | 0.00 | 0.00 | 0.00 | 51 | 1014.1 |
| 20260505173225 | 15 | 292 | 4.8 | 9.7 | 0.00 | 0.00 | 0.00 | 51 | 1014.1 |
| 20260505172725 | 15 | 0 | 4.8 | 8.0 | 0.00 | 0.00 | 0.00 | 51 | 1014.1 |
| 20260505171724 | 16 | 0 | 4.8 | 8.0 | 0.00 | 0.00 | 0.00 | 50 | 1014.1 |
| 20260505170725 | 16 | 0 | 3.2 | 11.3 | 0.00 | 0.00 | 0.00 | 49 | 1014.1 |
| 20260505170225 | 16 | 0 | 3.2 | 11.3 | 0.00 | 0.00 | 0.00 | 49 | 1014.1 |
| 20260505165725 | 16 | 315 | 6.4 | 9.7 | 0.00 | 0.00 | 0.00 | 49 | 1014.1 |
| 20260505165224 | 17 | 338 | 6.4 | 9.7 | 0.00 | 0.00 | 0.00 | 48 | 1014.1 |
| 20260505164725 | 17 | 338 | 6.4 | 11.3 | 0.00 | 0.00 | 0.00 | 48 | 1014.1 |
| 20260505164225 | 17 | 315 | 4.8 | 11.3 | 0.00 | 0.00 | 0.00 | 48 | 1014.1 |
| 20260505163724 | 17 | 338 | 3.2 | 11.3 | 0.00 | 0.00 | 0.00 | 48 | 1014.1 |
| 20260505163224 | 17 | 0 | 4.8 | 14.5 | 0.00 | 0.00 | 0.00 | 48 | 1014.1 |
| 20260505162724 | 17 | 0 | 8.0 | 14.5 | 0.00 | 0.00 | 0.00 | 48 | 1014.1 |
| 20260505162225 | 17 | 0 | 6.4 | 14.5 | 0.00 | 0.00 | 0.00 | 48 | 1014.1 |
| 20260505161725 | 17 | 0 | 4.8 | 11.3 | 0.00 | 0.00 | 0.00 | 48 | 1014.1 |
| 20260505161224 | 17 | 0 | 6.4 | 11.3 | 0.00 | 0.00 | 0.00 | 48 | 1014.1 |
| 20260505160726 | 17 | 135 | 8.0 | 9.7 | 0.00 | 0.00 | 0.00 | 48 | 1014.1 |
| 20260505153226 | 18 | 338 | 6.4 | 9.7 | 0.00 | 0.00 | 0.00 | 47 | 1014.1 |
| 20260505152224 | 18 | 135 | 4.8 | 11.3 | 0.00 | 0.00 | 0.00 | 47 | 1014.1 |
| 20260505151726 | 18 | 202 | 4.8 | 14.5 | 0.00 | 0.00 | 0.00 | 46 | 1014.1 |
| 20260505151224 | 18 | 135 | 6.4 | 14.5 | 0.00 | 0.00 | 0.00 | 46 | 1014.1 |
| 20260505150725 | 18 | 0 | 6.4 | 14.5 | 0.00 | 0.00 | 0.00 | 46 | 1014.1 |
| 20260505150224 | 18 | 315 | 4.8 | 14.5 | 0.00 | 0.00 | 0.00 | 47 | 1014.1 |
| 20260505140224 | 18 | 0 | 6.4 | 11.3 | 0.00 | 0.00 | 0.00 | 49 | 1014.1 |
| 20260505124725 | 17 | 135 | 3.2 | 12.9 | 0.00 | 0.00 | 0.00 | 55 | 1014.1 |